Location: Albany
(35.0000°S, 118.0000°E)
Time: 09:45:45
(UTC-05:00)

Amateur Radio Satellites - All Passes

Search period start: 01 February 2015 09:15
Search period end: 02 February 2015 09:15
Location: Albany, 35.0000°S, 118.0000°E

Satellite Date Start Highest point End Downlink Frequencies (MHz)
Time Altitude Azimuth
50 SAT 01 Feb 09:18:31 09:22:11 31° 83° (E) 09:25:54 437.505
CUTE 1.7 + AOD 2 01 Feb 09:26:27 09:27:49 11° 247° (WSW) 09:28:53 437.475
AIST 1 01 Feb 09:29:21 09:33:28 39° 88° (E) 09:37:40
POPSAT HIP 1 01 Feb 09:32:01 09:36:17 77° 282° (WNW) 09:40:35 437.405
DUCHIFAT 1 01 Feb 09:32:41 09:36:56 76° 282° (WNW) 09:41:14 145.980
Oscar 11 01 Feb 09:37:20 09:41:07 27° 251° (WSW) 09:44:46 145.826/435.025
UWE-3 01 Feb 09:39:03 09:43:21 44° 254° (WSW) 09:47:41 435.000/436.395/437.385
PHONESAT 2.4 01 Feb 09:39:59 09:43:24 34° 175° (S) 09:46:48 2401.200-2431.200
AISAT 01 Feb 09:42:56 09:47:24 68° 79° (ENE) 09:51:49 437.250
GONETS M04 01 Feb 09:44:34 09:50:16 19° 115° (ESE) 09:56:25
CINEMA 3 01 Feb 09:54:04 09:56:56 16° 250° (WSW) 09:59:41 145.822/145.860
UNISAT 6 01 Feb 09:56:11 09:59:39 23° 274° (W) 10:03:04 437.425
ESTCUBE 1 01 Feb 09:56:30 10:00:47 39° 82° (E) 10:05:02 437.505/2401.250
VERMONT LUNAR 01 Feb 09:59:38 10:03:04 44° 167° (SSE) 10:06:30 437.305
CUBEBUG 1 01 Feb 10:07:48 10:12:03 48° 81° (E) 10:16:16 437.445
NANOSAT C BR1 01 Feb 10:08:48 10:12:29 27° 276° (W) 10:16:08 145.865
VELOX 1 01 Feb 10:09:29 10:13:54 60° 254° (WSW) 10:18:15 145.980
HUMSAT D 01 Feb 10:12:28 10:16:32 40° 254° (WSW) 10:20:35 437.325/437.525
DELFI C3 01 Feb 10:13:35 10:15:24 12° 248° (WSW) 10:17:00 145.870
UKube-1 01 Feb 10:15:02 10:18:15 20° 249° (WSW) 10:21:20 .
HO-68 01 Feb 10:17:56 10:20:33 12° 237° (WSW) 10:22:40 435.675
QB50P2 01 Feb 10:26:00 10:28:57 18° 273° (W) 10:31:46 145.880/145.840
BUGSAT 1 01 Feb 10:27:53 10:31:12 21° 274° (W) 10:34:25 437.445
RS-15 01 Feb 10:28:43 10:37:42 24° 147° (SSE) 10:46:44 29.354- 29.394
QB50P1 01 Feb 10:34:45 10:37:11 14° 272° (W) 10:39:24 145.935-145.965
BEESAT 2 01 Feb 10:37:06 10:40:22 24° 293° (WNW) 10:43:35 435.950
ZACube-1 01 Feb 10:37:15 10:39:28 13° 248° (WSW) 10:41:27 437.345
DX 1 01 Feb 10:42:31 10:42:57 10° 246° (WSW) 10:43:05 434.975-435.025
BEESAT 3 01 Feb 10:48:29 10:50:57 16° 291° (WNW) 10:53:16 437.485
AIST 2 01 Feb 10:49:52 10:53:49 46° 296° (WNW) 10:57:46 435.215
50 SAT 01 Feb 10:54:16 10:57:06 18° 250° (WSW) 10:59:48 437.505
AIST 1 01 Feb 11:08:43 11:11:23 15° 252° (WSW) 11:13:53
SPROUT 01 Feb 11:15:41 11:20:01 69° 79° (E) 11:24:19 437.525
PHONESAT 2.4 01 Feb 11:18:35 11:22:17 75° 159° (SSE) 11:25:56 2401.200-2431.200
Oscar 19 01 Feb 11:29:26 11:34:20 48° 107° (ESE) 11:39:20 437.125/150
Gurwin Techsat 1B 01 Feb 11:33:59 11:35:52 12° 116° (ESE) 11:38:04 435.225
ESTCUBE 1 01 Feb 11:34:21 11:37:23 17° 248° (WSW) 11:40:14 437.505/2401.250
PCSat 01 Feb 11:35:35 11:40:43 42° 122° (ESE) 11:45:51 145.827
VERMONT LUNAR 01 Feb 11:37:48 11:41:13 46° 330° (NNW) 11:44:36 437.305
GONETS M04 01 Feb 11:39:21 11:48:18 80° 275° (W) 11:57:07
TISAT 1 01 Feb 11:41:12 11:45:25 59° 255° (WSW) 11:49:34 437.305
CUBEBUG 1 01 Feb 11:45:55 11:48:04 13° 247° (WSW) 11:49:58 437.445
ITAMSAT 1 01 Feb 11:53:46 11:58:10 29° 111° (ESE) 12:02:41 435.822/435.867
SWISSCUBE 01 Feb 12:03:26 12:07:46 33° 84° (E) 12:12:06 437.505
BEESAT 01 Feb 12:18:20 12:22:58 44° 81° (E) 12:27:32 436.000
ITUPSAT 1 01 Feb 12:24:21 12:29:05 50° 81° (E) 12:33:45 437.325
HORYU 2 01 Feb 12:33:03 12:34:19 11° 114° (ESE) 12:35:51 437.375
RS-15 01 Feb 12:40:42 12:52:36 80° 121° (ESE) 13:03:49 29.354- 29.394
PHONESAT 2.4 01 Feb 12:57:43 13:00:37 22° 325° (NW) 13:03:28 2401.200-2431.200
DANDE 01 Feb 13:04:46 13:08:52 22° 104° (ESE) 13:14:01 436.750
STARS 01 Feb 13:07:13 13:10:00 17° 88° (E) 13:12:57 437.465
Gurwin Techsat 1B 01 Feb 13:09:55 13:15:15 77° 283° (WNW) 13:20:40 435.225
Oscar 19 01 Feb 13:10:39 13:14:01 17° 271° (W) 13:17:11 437.125/150
CUSAT 1 01 Feb 13:14:27 13:19:26 35° 102° (ESE) 13:25:48 437.405
AO-7 01 Feb 13:18:26 13:25:26 33° 117° (ESE) 13:32:40 29.400- 29.500
PCSat 01 Feb 13:19:40 13:23:54 23° 287° (WNW) 13:27:57 145.827
KKS-1 01 Feb 13:20:19 13:24:30 37° 82° (E) 13:28:41 437.445
ITAMSAT 1 01 Feb 13:32:59 13:37:36 30° 276° (W) 13:42:11 435.822/435.867
GONETS M04 01 Feb 13:40:28 13:43:57 12° 259° (W) 13:46:37
SWISSCUBE 01 Feb 13:41:41 13:45:29 23° 249° (WSW) 13:49:07 437.505
JAS-2 01 Feb 13:48:49 13:54:34 25° 116° (ESE) 14:00:47 435.910
O/OREOS (USA 219) 01 Feb 13:55:31 13:59:45 38° 75° (ENE) 14:04:03 437.305
BEESAT 01 Feb 13:57:16 14:00:30 17° 247° (WSW) 14:03:31 436.000
ITUPSAT 1 01 Feb 14:03:41 14:06:36 15° 247° (WSW) 14:09:17 437.325
HORYU 2 01 Feb 14:06:06 14:10:31 60° 280° (W) 14:15:00 437.375
M-CUBED/EXP-1 PRIME 01 Feb 14:16:11 14:20:47 41° 79° (ENE) 14:25:09 437.505
STARS 01 Feb 14:42:31 14:46:39 37° 253° (WSW) 14:50:44 437.465
JUGNU 01 Feb 14:42:32 14:45:44 15° 9° (N) 14:48:59 437.505
AUBIESAT-1 01 Feb 14:46:12 14:51:06 80° 73° (ENE) 14:55:41 437.475
DANDE 01 Feb 14:47:06 14:52:14 45° 277° (W) 14:58:50 436.750
RS-15 01 Feb 14:55:15 15:03:53 23° 283° (WNW) 15:11:36 29.354- 29.394
CUSAT 1 01 Feb 14:57:24 15:02:24 31° 275° (W) 15:08:24 437.405
KKS-1 01 Feb 14:57:51 15:00:54 18° 248° (WSW) 15:03:47 437.445
AO-7 01 Feb 15:09:55 15:17:57 51° 281° (W) 15:26:00 29.400- 29.500
MOZHAYETS 4 01 Feb 15:24:39 15:28:54 34° 84° (E) 15:33:08
SRMSAT 01 Feb 15:30:47 15:32:42 12° 13° (NNE) 15:34:44 437.500
JAS-2 01 Feb 15:31:35 15:38:58 65° 280° (W) 15:46:52 435.910
O/OREOS (USA 219) 01 Feb 15:36:08 15:39:22 18° 239° (WSW) 15:42:28 437.305
M-CUBED/EXP-1 PRIME 01 Feb 15:51:49 15:55:24 20° 243° (WSW) 15:58:45 437.505
Cubesat XI-IV 01 Feb 16:03:26 16:08:20 37° 109° (ESE) 16:13:18 437.490
CUTE-I 01 Feb 16:21:57 16:27:10 55° 106° (ESE) 16:32:29 437.470
AUBIESAT-1 01 Feb 16:23:50 16:25:18 11° 239° (WSW) 16:26:28 437.475
JUGNU 01 Feb 16:30:08 16:34:04 18° 360° (N) 16:37:58 437.505
YUBILEINY 01 Feb 16:40:33 16:45:21 17° 98° (E) 16:50:47 435.215
MOZHAYETS 4 01 Feb 17:02:23 17:05:56 21° 249° (WSW) 17:09:19
SRMSAT 01 Feb 17:17:22 17:21:10 18° 4° (N) 17:24:59 437.500
SO-50 01 Feb 17:21:24 17:25:41 49° 123° (ESE) 17:29:57 436.795
STRAND 1 01 Feb 17:24:18 17:28:49 31° 84° (E) 17:33:23 437.568
CUBESAT XI-V 01 Feb 17:27:16 17:31:50 50° 81° (E) 17:36:20 437.345
PRISM 01 Feb 17:34:21 17:38:37 88° 88° (E) 17:42:48 437.425
Cubesat XI-IV 01 Feb 17:44:09 17:48:32 24° 274° (W) 17:52:49 437.490
CUTE-I 01 Feb 18:04:20 18:07:40 16° 271° (W) 18:10:46 437.470
CANX-2 01 Feb 18:15:37 18:18:16 17° 111° (ESE) 18:21:06 2200.000
JUGNU 01 Feb 18:19:19 18:22:23 14° 350° (N) 18:25:23 437.505
DOVE 4 01 Feb 18:21:36 18:22:42 11° 112° (ESE) 18:24:04 437.250
GOMX 1 01 Feb 18:25:02 18:28:06 19° 109° (ESE) 18:31:13 467.674
YUBILEINY 01 Feb 18:32:23 18:41:15 83° 263° (W) 18:50:12 435.215
CUTE 1.7 + AOD 2 01 Feb 18:38:11 18:41:46 27° 108° (ESE) 18:45:28 437.475
ISS 01 Feb 18:43:32 18:46:43 46° 46° (NE) 18:49:56 145.825
BRITE-PL 01 Feb 18:47:22 18:51:58 52° 105° (ESE) 18:56:19 437.365/2234.400
HO-68 01 Feb 18:50:59 18:58:02 62° 109° (ESE) 19:05:12 435.675
Oscar 11 01 Feb 18:54:52 18:56:37 13° 113° (ESE) 18:58:37 145.826/435.025
SEEDS 01 Feb 19:03:02 19:07:04 45° 106° (ESE) 19:11:12 437.485
STRAND 1 01 Feb 19:03:38 19:07:56 26° 249° (WSW) 19:12:06 437.568
SO-50 01 Feb 19:03:40 19:05:50 13° 290° (WNW) 19:07:46 436.795
SRMSAT 01 Feb 19:05:58 19:09:39 17° 354° (N) 19:13:19 437.500
CUBESAT XI-V 01 Feb 19:06:20 19:08:53 14° 247° (WSW) 19:11:12 437.345
CINEMA 3 01 Feb 19:15:20 19:18:46 25° 108° (ESE) 19:22:16 145.822/145.860
DELFI C3 01 Feb 19:22:22 19:25:19 20° 110° (ESE) 19:28:25 145.870
COMPASS 1 01 Feb 19:23:57 19:28:08 68° 103° (ESE) 19:32:24 437.405
UKube-1 01 Feb 19:31:04 19:34:04 19° 111° (ESE) 19:37:13 .
AAUSAT CUBESAT 2 01 Feb 19:47:20 19:51:31 71° 281° (W) 19:55:47 437.432
CANX-2 01 Feb 19:50:03 19:53:59 35° 277° (W) 19:57:56 2200.000
ZACube-1 01 Feb 19:52:48 19:56:14 26° 108° (ESE) 19:59:46 437.345
DX 1 01 Feb 19:55:19 19:59:21 37° 108° (ESE) 20:03:27 434.975-435.025
DOVE 4 01 Feb 19:55:50 20:00:10 54° 280° (W) 20:04:21 437.250
CUBEBUG 2 01 Feb 20:01:17 20:05:19 48° 105° (ESE) 20:09:24 437.445
GOMX 1 01 Feb 20:02:01 20:06:07 32° 277° (W) 20:10:00 467.674
FUNcube-1 01 Feb 20:03:06 20:06:50 33° 107° (ESE) 20:10:40 145.935
50 SAT 01 Feb 20:04:38 20:06:23 13° 111° (ESE) 20:08:22 437.505
CUTE 1.7 + AOD 2 01 Feb 20:14:27 20:17:44 21° 273° (W) 20:20:56 437.475
ISS 01 Feb 20:20:58 20:23:24 18° 210° (SSW) 20:25:46 145.825
Oscar 11 01 Feb 20:28:11 20:32:24 50° 279° (W) 20:36:41 145.826/435.025
BRITE-PL 01 Feb 20:28:53 20:30:48 12° 271° (W) 20:32:24 437.365/2234.400
UWE-3 01 Feb 20:33:03 20:37:14 81° 283° (WNW) 20:41:29 435.000/436.395/437.385
YUBILEINY 01 Feb 20:34:59 20:39:44 14° 242° (WSW) 20:43:48 435.215
AISAT 01 Feb 20:37:51 20:42:02 40° 107° (ESE) 20:46:16 437.250
HO-68 01 Feb 20:40:55 20:46:18 21° 272° (W) 20:51:25 435.675
SEEDS 01 Feb 20:41:22 20:43:14 12° 270° (W) 20:44:51 437.485
ANTELSAT 01 Feb 20:50:54 20:54:12 19° 87° (E) 20:57:40 437.575/2403.000
CINEMA 3 01 Feb 20:52:39 20:56:00 22° 274° (W) 20:59:13 145.822/145.860
ESTCUBE 1 01 Feb 20:53:23 20:57:07 26° 109° (ESE) 21:00:59 437.505/2401.250
TIGRISAT 01 Feb 20:56:10 20:59:41 22° 86° (E) 21:03:21 435.000
DELFI C3 01 Feb 20:56:53 21:00:25 27° 275° (W) 21:03:57 145.870
SRMSAT 01 Feb 20:57:35 20:58:07 10° 345° (NNW) 20:58:31 437.500
HUMSAT D 01 Feb 21:01:01 21:05:09 87° 283° (WNW) 21:09:21 437.325/437.525
CUBEBUG 1 01 Feb 21:01:09 21:04:55 28° 109° (ESE) 21:08:45 437.445
VELOX 1 01 Feb 21:03:42 21:08:11 80° 103° (ESE) 21:12:43 145.980
POLYITAN 1 01 Feb 21:04:32 21:06:43 14° 89° (E) 21:09:06 437.675
UKube-1 01 Feb 21:06:03 21:10:01 33° 277° (W) 21:14:00 .
AIST 1 01 Feb 21:17:20 21:21:43 79° 276° (W) 21:26:01
POPSAT HIP 1 01 Feb 21:21:32 21:24:50 22° 86° (E) 21:28:14 437.405
DUCHIFAT 1 01 Feb 21:21:52 21:25:10 22° 86° (E) 21:28:32 145.980
ZACube-1 01 Feb 21:29:24 21:32:38 21° 274° (W) 21:35:46 437.345
DX 1 01 Feb 21:32:54 21:35:46 16° 273° (W) 21:38:29 434.975-435.025
50 SAT 01 Feb 21:37:26 21:41:11 40° 278° (W) 21:44:59 437.505
FUNcube-1 01 Feb 21:40:42 21:43:22 16° 272° (W) 21:45:52 145.935
CUBEBUG 2 01 Feb 21:41:15 21:42:25 11° 270° (W) 21:43:18 437.445
UNISAT 6 01 Feb 21:50:10 21:54:52 90° 256° (WSW) 21:59:35 437.425
NANOSAT C BR1 01 Feb 21:56:39 22:00:54 60° 80° (E) 22:05:08 145.865
SPROUT 01 Feb 22:06:52 22:10:47 34° 107° (ESE) 22:14:46 437.525
BUGSAT 1 01 Feb 22:12:38 22:16:44 70° 79° (E) 22:20:46 437.445
QB50P2 01 Feb 22:13:13 22:17:34 83° 259° (W) 22:21:50 145.880/145.840
AISAT 01 Feb 22:16:07 22:18:53 15° 272° (W) 22:21:28 437.250
QB50P1 01 Feb 22:21:12 22:25:29 67° 256° (WSW) 22:29:43 145.935-145.965
ANTELSAT 01 Feb 22:26:50 22:31:07 35° 253° (WSW) 22:35:22 437.575/2403.000
ESTCUBE 1 01 Feb 22:30:04 22:33:57 26° 275° (W) 22:37:46 437.505/2401.250
TISAT 1 01 Feb 22:30:08 22:34:21 65° 104° (ESE) 22:38:37 437.305
TIGRISAT 01 Feb 22:32:21 22:36:30 32° 252° (WSW) 22:40:36 435.000
CUBEBUG 1 01 Feb 22:37:45 22:41:18 22° 274° (W) 22:44:45 437.445
POLYITAN 1 01 Feb 22:38:50 22:42:54 40° 254° (WSW) 22:46:55 437.675
GONETS M04 01 Feb 22:41:50 22:48:13 24° 96° (E) 22:55:01
POPSAT HIP 1 01 Feb 22:57:08 23:00:44 26° 251° (WSW) 23:04:13 437.405
DUCHIFAT 1 01 Feb 22:57:25 23:01:00 26° 251° (WSW) 23:04:29 145.980
BEESAT 3 01 Feb 23:02:10 23:04:18 15° 69° (ENE) 23:06:37 437.485
SWISSCUBE 01 Feb 23:07:09 23:11:09 27° 110° (ESE) 23:15:16 437.505
BEESAT 01 Feb 23:21:46 23:26:06 35° 108° (ESE) 23:30:33 436.000
ITUPSAT 1 01 Feb 23:28:00 23:32:31 40° 108° (ESE) 23:37:06 437.325
NANOSAT C BR1 01 Feb 23:35:35 23:36:19 10° 246° (WSW) 23:36:48 145.865
SPROUT 01 Feb 23:44:08 23:47:02 17° 272° (W) 23:49:46 437.525
Oscar 19 01 Feb 23:45:00 23:49:01 23° 86° (E) 23:53:09 437.125/150
STARS 02 Feb 00:03:34 00:04:17 10° 114° (ESE) 00:05:16 437.465
O/OREOS (USA 219) 02 Feb 00:08:40 00:12:58 42° 114° (ESE) 00:17:15 437.305
ITAMSAT 1 02 Feb 00:11:39 00:13:40 13° 90° (E) 00:16:01 435.822/435.867
KKS-1 02 Feb 00:15:55 00:19:26 24° 110° (ESE) 00:23:04 437.445
BEESAT 2 02 Feb 00:28:11 00:32:08 57° 239° (WSW) 00:36:04 435.950
GONETS M04 02 Feb 00:35:46 00:44:26 63° 260° (W) 00:53:15
BEESAT 3 02 Feb 00:38:26 00:42:09 37° 236° (WSW) 00:45:52 437.485
SWISSCUBE 02 Feb 00:44:49 00:48:58 27° 275° (W) 00:53:04 437.505
AIST 2 02 Feb 00:44:50 00:48:55 81° 62° (ENE) 00:53:01 435.215
RS-15 02 Feb 00:54:08 00:58:40 14° 80° (E) 01:04:33 29.354- 29.394
BEESAT 02 Feb 01:00:24 01:04:05 21° 273° (W) 01:07:38 436.000
M-CUBED/EXP-1 PRIME 02 Feb 01:02:08 01:05:52 31° 114° (ESE) 01:09:56 437.505
ITUPSAT 1 02 Feb 01:07:13 01:10:37 18° 273° (W) 01:13:52 437.325
ISS 02 Feb 01:14:36 01:16:47 16° 151° (SSE) 01:19:01 145.825
Oscar 19 02 Feb 01:23:39 01:28:29 37° 251° (WSW) 01:33:14 437.125/150
Gurwin Techsat 1B 02 Feb 01:29:38 01:34:56 57° 80° (E) 01:40:10 435.225
AUBIESAT-1 02 Feb 01:31:23 01:35:31 60° 110° (ESE) 01:40:04 437.475
STARS 02 Feb 01:35:55 01:40:17 63° 281° (W) 01:44:42 437.465
ITAMSAT 1 02 Feb 01:48:31 01:53:43 64° 254° (WSW) 01:58:51 435.822/435.867
O/OREOS (USA 219) 02 Feb 01:49:31 01:52:03 14° 281° (W) 01:54:21 437.305
KKS-1 02 Feb 01:52:11 01:56:01 27° 275° (W) 01:59:47 437.445
HORYU 2 02 Feb 02:01:08 02:05:16 33° 83° (E) 02:09:24 437.375
PCSat 02 Feb 02:13:33 02:18:57 76° 66° (ENE) 02:24:24 145.827
DANDE 02 Feb 02:18:47 02:20:17 14° 86° (E) 02:21:51 436.750
MOZHAYETS 4 02 Feb 02:23:56 02:27:29 23° 110° (ESE) 02:31:12
CUSAT 1 02 Feb 02:24:51 02:27:06 25° 85° (E) 02:29:25 437.405
M-CUBED/EXP-1 PRIME 02 Feb 02:37:39 02:40:53 21° 277° (W) 02:44:14 437.505
JAS-2 02 Feb 02:47:20 02:52:39 24° 91° (E) 02:57:41 435.910
ISS 02 Feb 02:50:17 02:53:31 54° 314° (NW) 02:56:43 145.825
RS-15 02 Feb 02:57:30 03:09:37 73° 65° (ENE) 03:21:52 29.354- 29.394
AUBIESAT-1 02 Feb 03:10:13 03:11:00 10° 272° (W) 03:11:29 437.475
Gurwin Techsat 1B 02 Feb 03:11:07 03:14:29 16° 246° (WSW) 03:17:36 435.225
AO-7 02 Feb 03:14:46 03:23:09 69° 76° (ENE) 03:31:30 29.400- 29.500
HORYU 2 02 Feb 03:38:21 03:41:45 20° 249° (WSW) 03:44:58 437.375
PCSat 02 Feb 03:59:53 04:03:03 15° 227° (SW) 04:06:01 145.827
MOZHAYETS 4 02 Feb 04:00:28 04:04:35 30° 276° (W) 04:08:42
PRISM 02 Feb 04:21:36 04:25:35 41° 107° (ESE) 04:29:39 437.425
VERMONT LUNAR 02 Feb 04:22:57 04:25:30 19° 35° (NE) 04:28:08 437.305
Cubesat XI-IV 02 Feb 04:24:57 04:28:36 19° 88° (E) 04:32:25 437.490
CUBESAT XI-V 02 Feb 04:27:30 04:31:46 35° 108° (ESE) 04:36:06 437.345
JAS-2 02 Feb 04:31:18 04:38:11 51° 251° (WSW) 04:44:12 435.910
STRAND 1 02 Feb 04:36:58 04:41:31 33° 109° (ESE) 04:46:11 437.568
CUTE-I 02 Feb 04:43:00 04:47:33 28° 85° (E) 04:52:09 437.470
YUBILEINY 02 Feb 04:47:13 04:55:24 42° 105° (ESE) 05:03:35 435.215
AO-7 02 Feb 05:08:49 05:15:20 25° 240° (WSW) 05:21:33 29.400- 29.500
RS-15 02 Feb 05:12:19 05:23:21 35° 222° (SW) 05:34:03 29.354- 29.394
PHONESAT 2.4 02 Feb 05:46:07 05:49:39 46° 29° (NNE) 05:53:13 2401.200-2431.200
PRISM 02 Feb 05:59:03 06:01:21 14° 272° (W) 06:03:27 437.425
VERMONT LUNAR 02 Feb 05:59:46 06:03:21 82° 200° (SSW) 06:06:57 437.305
Cubesat XI-IV 02 Feb 06:03:51 06:08:59 45° 252° (WSW) 06:14:02 437.490
CUBESAT XI-V 02 Feb 06:05:45 06:09:19 20° 273° (W) 06:12:47 437.345
STRAND 1 02 Feb 06:16:29 06:20:46 25° 275° (W) 06:24:58 437.568
CUTE-I 02 Feb 06:22:54 06:27:37 31° 250° (WSW) 06:32:12 437.470
HO-68 02 Feb 06:25:51 06:28:12 12° 92° (E) 06:31:09 435.675
YUBILEINY 02 Feb 06:44:15 06:52:08 37° 268° (W) 06:59:45 435.215
SEEDS 02 Feb 06:54:19 06:54:32 10° 91° (E) 06:55:04 437.485
BRITE-PL 02 Feb 06:55:41 06:58:52 20° 86° (E) 07:02:18 437.365/2234.400
COMPASS 1 02 Feb 07:12:40 07:15:00 15° 89° (E) 07:17:32 437.405
PHONESAT 2.4 02 Feb 07:24:40 07:28:15 47° 195° (SSW) 07:31:51 2401.200-2431.200
SO-50 02 Feb 07:32:46 07:37:07 36° 66° (ENE) 07:41:25 436.795
AAUSAT CUBESAT 2 02 Feb 07:34:44 07:38:10 23° 86° (E) 07:41:38 437.432
RS-15 02 Feb 07:35:25 07:41:19 14° 190° (S) 07:46:53 29.354- 29.394
VERMONT LUNAR 02 Feb 07:38:26 07:41:44 34° 186° (S) 07:45:02 437.305
CANX-2 02 Feb 07:38:31 07:42:47 49° 81° (E) 07:47:00 2200.000
ANTELSAT 02 Feb 07:49:17 07:50:26 11° 114° (ESE) 07:51:51 437.575/2403.000
TIGRISAT 02 Feb 07:53:53 07:55:32 12° 113° (ESE) 07:57:27 435.000
CUBEBUG 2 02 Feb 07:56:55 07:59:17 14° 89° (E) 08:01:54 437.445
DOVE 4 02 Feb 07:57:36 08:01:57 48° 81° (E) 08:06:31 437.250
CUTE 1.7 + AOD 2 02 Feb 08:01:55 08:06:20 87° 78° (ENE) 08:10:41 437.475
GOMX 1 02 Feb 08:05:56 08:10:24 88° 67° (ENE) 08:15:04 467.674
HO-68 02 Feb 08:09:44 08:17:01 87° 75° (ENE) 08:24:14 435.675
POPSAT HIP 1 02 Feb 08:13:18 08:14:48 12° 113° (ESE) 08:16:32 437.405
DUCHIFAT 1 02 Feb 08:13:22 08:14:48 12° 113° (ESE) 08:16:29 145.980
Oscar 11 02 Feb 08:19:01 08:23:07 36° 83° (E) 08:27:11 145.826/435.025
SEEDS 02 Feb 08:26:31 08:30:48 56° 255° (WSW) 08:35:02 437.485
UWE-3 02 Feb 08:26:34 08:30:20 26° 85° (E) 08:34:14 435.000/436.395/437.385
BRITE-PL 02 Feb 08:33:39 08:37:28 29° 253° (WSW) 08:41:23 437.365/2234.400
DELFI C3 02 Feb 08:39:50 08:43:57 52° 80° (E) 08:48:00 145.870
UNISAT 6 02 Feb 08:46:16 08:50:25 52° 105° (ESE) 08:54:43 437.425
NANOSAT C BR1 02 Feb 08:46:35 08:50:15 29° 108° (ESE) 08:54:00 145.865
COMPASS 1 02 Feb 08:46:54 08:50:57 39° 254° (WSW) 08:54:55 437.405
CINEMA 3 02 Feb 08:49:09 08:53:42 79° 256° (WSW) 08:58:25 145.822/145.860
HUMSAT D 02 Feb 08:49:33 08:52:42 20° 87° (E) 08:55:59 437.325/437.525
BEESAT 2 02 Feb 08:51:12 08:54:42 29° 126° (SE) 08:58:15 435.950
UKube-1 02 Feb 08:56:44 09:01:01 51° 80° (E) 09:05:16 .
VELOX 1 02 Feb 08:58:51 09:02:01 20° 86° (E) 09:05:19 145.980
BUGSAT 1 02 Feb 08:59:50 09:03:33 31° 107° (ESE) 09:07:20 437.445
BEESAT 3 02 Feb 09:00:33 09:04:21 42° 123° (ESE) 09:08:10 437.485
QB50P2 02 Feb 09:03:02 09:07:07 47° 106° (ESE) 09:11:17 145.880/145.840
PHONESAT 2.4 02 Feb 09:03:52 09:07:16 34° 177° (S) 09:10:40 2401.200-2431.200
